Location: ?????
(44.4284°N, 135.2222°E)
Time: 10:34:29
(UTC+00:00)

DELTA 2 R/B (1) - Pass Details

Date: 16 January 2026
Orbit: 786 x 800 km, 39.6° (Epoch: 10 February)

Event Time Altitude Azimuth Distance (km) Brightness Sun altitude
Rises 09:19:13 0° 225° (SW) 3,277 7.8 -16.3°
Reaches altitude 10° 09:21:58 10° 215° (SW) 2,347 6.7 -16.7°
Maximum altitude 09:26:41 29° 156° (SSE) 1,405 4.7 -17.6°
Enters shadow 09:28:54 22° 119° (ESE) 1,659 4.8 -17.9°
